Location: Fort Wayne
(41.1310°N, 85.1290°W)
Time: 15:48:46
(UTC-04:00)

Cosmos 2056 Rocket - Visible Passes

Search period start: 31 August 2015 00:00
Search period end: 10 September 2015 00:00
Orbit: 743 x 801 km, 74.0° (Epoch: 30 August)

Date Brightness Start Highest point End Pass type
(mag) Time Alt. Az. Time Alt. Az. Time Alt. Az.
31 Aug 4.6 20:52:13 10° N 20:56:35 27° ENE 21:00:49 11° ESE visible
31 Aug 4.7 22:34:02 10° NW 22:38:52 38° WSW 22:41:11 25° SSW visible
01 Sep 3.8 21:57:56 10° NNW 22:03:08 65° WSW 22:06:29 22° S visible
02 Sep 3.5 21:22:04 10° NNW 21:27:19 77° ENE 21:31:52 14° SSE visible
02 Sep 6.2 23:06:39 10° WNW 23:08:55 12° W 23:10:52 10° WSW visible
03 Sep 3.9 20:46:23 10° N 20:51:25 46° ENE 20:56:32 10° SE visible
03 Sep 5.7 22:29:19 10° NW 22:33:18 21° W 22:37:09 10° SW visible
04 Sep 4.9 21:52:50 10° NW 21:57:38 35° WSW 22:02:24 10° SSW visible
05 Sep 4.1 21:16:43 10° NNW 21:21:54 60° WSW 21:27:08 10° S visible
06 Sep 3.5 20:40:49 10° NNW 20:46:06 82° ENE 20:51:27 10° SSE visible
06 Sep 6.4 22:25:49 10° WNW 22:27:39 11° W 22:29:08 10° WSW visible
07 Sep 6.0 21:48:12 10° NW 21:52:02 20° W 21:55:44 10° SW visible
08 Sep 5.3 21:11:39 10° NW 21:16:22 33° WSW 21:21:05 10° SSW visible
09 Sep 4.3 20:35:29 10° NNW 20:40:39 56° WSW 20:45:52 10° S visible
